When you browse on this site, cookies collect data to enhance your experience and personalize the content and advertising you see.
Visit our Privacy Policy to learn more. By continuing to use the site, you agree to this use of cookies and data.
  • In Schweiz
  • Länderverzeichnis
  • Für 7 Tage
  • Wassertemperatur
  • Wetterkarte
  • Widgets
  • user-avatar
    Anmelden

    Stündliche Wetter Oyem

    Heute, 24 September, Dienstag

    Zeit Temperatur Niederschläge Wind Luftdruck Luftfeuchtigkeit
    00:00 +22°C° 0.2 mm 1 m/S 703 mmHg 98%
    01:00 +20°C° 0 mm 0 m/S 703 mmHg 99%
    02:00 +20°C° 2 mm 0 m/S 703 mmHg 99%
    03:00 +20°C° 2 mm 0 m/S 703 mmHg 99%
    04:00 +20°C° 2 mm 0 m/S 703 mmHg 99%
    05:00 +21°C° 1.1 mm 0 m/S 704 mmHg 99%
    06:00 +21°C° 1.1 mm 0 m/S 704 mmHg 99%
    07:00 +21°C° 1.1 mm 0 m/S 704 mmHg 98%
    08:00 +23°C° 0 mm 0 m/S 705 mmHg 89%
    09:00 +25°C° 0 mm 0 m/S 705 mmHg 79%
    10:00 +29°C° 0 mm 1 m/S 705 mmHg 69%
    11:00 +29°C° 0.1 mm 0 m/S 705 mmHg 64%
    12:00 +30°C° 0.1 mm 0 m/S 704 mmHg 59%
    13:00 +31°C° 0.1 mm 0 m/S 703 mmHg 54%
    14:00 +31°C° 0.8 mm 1 m/S 702 mmHg 64%
    15:00 +30°C° 0.8 mm 1 m/S 702 mmHg 75%
    16:00 +28°C° 0.8 mm 2 m/S 701 mmHg 85%
    17:00 +26°C° 0.4 mm 2 m/S 702 mmHg 89%
    18:00 +25°C° 0.4 mm 2 m/S 702 mmHg 93%
    19:00 +24°C° 0.4 mm 2 m/S 703 mmHg 96%
    20:00 +23°C° 0.2 mm 2 m/S 703 mmHg 97%
    21:00 +23°C° 0.2 mm 2 m/S 703 mmHg 97%
    22:00 +23°C° 0.2 mm 2 m/S 703 mmHg 98%
    23:00 +23°C° 0.1 mm 2 m/S 703 mmHg 98%

    Morgen, 25 September, Mittwoch

    Zeit Temperatur Niederschläge Wind Luftdruck Luftfeuchtigkeit
    00:00 +23°C° 0.1 mm 2 m/S 703 mmHg 98%
    01:00 +21°C° 0.1 mm 2 m/S 703 mmHg 98%
    02:00 +22°C° 0 mm 1 m/S 703 mmHg 97%
    03:00 +22°C° 0 mm 1 m/S 703 mmHg 97%
    04:00 +22°C° 0 mm 1 m/S 703 mmHg 97%
    05:00 +22°C° 0 mm 1 m/S 704 mmHg 97%
    06:00 +23°C° 0 mm 1 m/S 704 mmHg 96%
    07:00 +23°C° 0 mm 1 m/S 705 mmHg 96%
    08:00 +24°C° 0.1 mm 1 m/S 705 mmHg 88%
    09:00 +26°C° 0.1 mm 2 m/S 705 mmHg 79%
    10:00 +28°C° 0.1 mm 2 m/S 706 mmHg 71%
    11:00 +28°C° 0.4 mm 2 m/S 705 mmHg 71%
    12:00 +29°C° 0.4 mm 2 m/S 704 mmHg 70%
    13:00 +30°C° 0.4 mm 2 m/S 703 mmHg 70%
    14:00 +29°C° 1.4 mm 1 m/S 702 mmHg 75%
    15:00 +28°C° 1.4 mm 1 m/S 702 mmHg 80%
    16:00 +28°C° 1.4 mm 1 m/S 702 mmHg 85%
    17:00 +26°C° 1.2 mm 1 m/S 702 mmHg 89%
    18:00 +25°C° 1.2 mm 1 m/S 702 mmHg 93%
    19:00 +24°C° 1.2 mm 1 m/S 703 mmHg 97%
    20:00 +23°C° 0.9 mm 1 m/S 703 mmHg 97%
    21:00 +23°C° 0.9 mm 1 m/S 703 mmHg 98%
    22:00 +23°C° 0.9 mm 1 m/S 704 mmHg 99%
    23:00 +23°C° 0.5 mm 1 m/S 703 mmHg 99%

    übermorgen, 26 September, Donnerstag

    Zeit Temperatur Niederschläge Wind Luftdruck Luftfeuchtigkeit
    00:00 +22°C° 0.5 mm 1 m/S 703 mmHg 99%
    01:00 +22°C° 0.5 mm 1 m/S 703 mmHg 99%
    02:00 +22°C° 0 mm 1 m/S 703 mmHg 99%
    03:00 +22°C° 0 mm 1 m/S 703 mmHg 99%
    04:00 +22°C° 0 mm 1 m/S 703 mmHg 99%
    05:00 +22°C° 0 mm 1 m/S 703 mmHg 98%
    06:00 +22°C° 0 mm 1 m/S 704 mmHg 98%
    07:00 +22°C° 0 mm 1 m/S 704 mmHg 97%
    08:00 +24°C° 0 mm 1 m/S 705 mmHg 89%
    09:00 +26°C° 0 mm 1 m/S 705 mmHg 81%
    10:00 +28°C° 0 mm 2 m/S 705 mmHg 73%
    11:00 +28°C° 1.1 mm 2 m/S 705 mmHg 76%
    12:00 +28°C° 1.1 mm 1 m/S 704 mmHg 79%
    13:00 +28°C° 1.1 mm 1 m/S 703 mmHg 81%
    14:00 +27°C° 2.7 mm 1 m/S 703 mmHg 86%
    15:00 +26°C° 2.7 mm 1 m/S 702 mmHg 91%
    16:00 +24°C° 2.7 mm 1 m/S 702 mmHg 96%
    17:00 +24°C° 1.6 mm 1 m/S 702 mmHg 96%
    18:00 +23°C° 1.6 mm 1 m/S 703 mmHg 97%
    19:00 +23°C° 1.6 mm 1 m/S 703 mmHg 98%
    20:00 +23°C° 0.5 mm 1 m/S 703 mmHg 98%
    21:00 +23°C° 0.5 mm 1 m/S 704 mmHg 98%
    22:00 +23°C° 0.5 mm 1 m/S 704 mmHg 99%
    23:00 +22°C° 0.1 mm 1 m/S 704 mmHg 99%

    27 September, Freitag

    Zeit Temperatur Niederschläge Wind Luftdruck Luftfeuchtigkeit
    00:00 +22°C° 0.1 mm 1 m/S 704 mmHg 99%
    01:00 +22°C° 0.1 mm 1 m/S 704 mmHg 99%
    02:00 +22°C° 0 mm 1 m/S 703 mmHg 99%
    03:00 +22°C° 0 mm 1 m/S 703 mmHg 99%
    04:00 +22°C° 0 mm 1 m/S 703 mmHg 99%
    05:00 +22°C° 0.2 mm 1 m/S 704 mmHg 98%
    06:00 +22°C° 0.2 mm 1 m/S 704 mmHg 98%
    07:00 +22°C° 0.2 mm 1 m/S 705 mmHg 98%
    08:00 +23°C° 0.9 mm 1 m/S 705 mmHg 98%
    09:00 +23°C° 0.9 mm 1 m/S 705 mmHg 97%
    10:00 +23°C° 0.9 mm 1 m/S 705 mmHg 97%
    11:00 +23°C° 0.7 mm 1 m/S 704 mmHg 97%
    12:00 +23°C° 0.7 mm 1 m/S 704 mmHg 97%
    13:00 +23°C° 0.7 mm 1 m/S 703 mmHg 97%
    14:00 +23°C° 0.1 mm 1 m/S 703 mmHg 97%
    15:00 +22°C° 0.1 mm 1 m/S 703 mmHg 97%
    16:00 +22°C° 0.1 mm 1 m/S 703 mmHg 97%
    17:00 +22°C° 0 mm 1 m/S 703 mmHg 97%
    18:00 +20°C° 0 mm 0 m/S 703 mmHg 98%
    19:00 +20°C° 0 mm 0 m/S 703 mmHg 98%
    20:00 +19°C° 0 mm 0 m/S 704 mmHg 98%
    21:00 +19°C° 0 mm 0 m/S 704 mmHg 98%
    22:00 +19°C° 0 mm 0 m/S 704 mmHg 99%
    23:00 +19°C° 0 mm 0 m/S 704 mmHg 99%

    28 September, Samstag

    Zeit Temperatur Niederschläge Wind Luftdruck Luftfeuchtigkeit
    00:00 +19°C° 0 mm 0 m/S 704 mmHg 99%
    01:00 +18°C° 0 mm 0 m/S 704 mmHg 99%
    02:00 +19°C° 0.6 mm 0 m/S 704 mmHg 99%
    03:00 +19°C° 0.6 mm 0 m/S 704 mmHg 99%
    04:00 +19°C° 0.6 mm 0 m/S 703 mmHg 99%
    05:00 +19°C° 0.1 mm 0 m/S 704 mmHg 99%
    06:00 +19°C° 0.1 mm 0 m/S 704 mmHg 98%
    07:00 +19°C° 0.1 mm 0 m/S 705 mmHg 98%
    08:00 +19°C° 0.4 mm 0 m/S 705 mmHg 98%
    09:00 +19°C° 0.4 mm 0 m/S 705 mmHg 98%
    10:00 +22°C° 0.4 mm 1 m/S 705 mmHg 98%
    11:00 +22°C° 0.3 mm 1 m/S 705 mmHg 98%
    12:00 +22°C° 0.3 mm 1 m/S 704 mmHg 98%
    13:00 +22°C° 0.3 mm 1 m/S 703 mmHg 98%
    14:00 +22°C° 0 mm 1 m/S 703 mmHg 97%
    15:00 +22°C° 0 mm 1 m/S 703 mmHg 97%
    16:00 +22°C° 0 mm 1 m/S 702 mmHg 97%
    17:00 +22°C° 0 mm 1 m/S 702 mmHg 97%
    18:00 +21°C° 0 mm 1 m/S 703 mmHg 98%
    19:00 +19°C° 0 mm 0 m/S 703 mmHg 99%
    20:00 +19°C° 0 mm 0 m/S 703 mmHg 99%
    21:00 +18°C° 0 mm 0 m/S 704 mmHg 99%
    22:00 +18°C° 0 mm 0 m/S 704 mmHg 99%
    23:00 +20°C° 0 mm 1 m/S 704 mmHg 99%

    29 September, Sonntag

    Zeit Temperatur Niederschläge Wind Luftdruck Luftfeuchtigkeit
    00:00 +20°C° 0 mm 1 m/S 704 mmHg 99%
    01:00 +20°C° 0 mm 1 m/S 703 mmHg 99%
    02:00 +20°C° 0 mm 1 m/S 703 mmHg 99%
    03:00 +20°C° 0 mm 1 m/S 703 mmHg 99%
    04:00 +20°C° 0 mm 1 m/S 703 mmHg 99%
    05:00 +20°C° 0 mm 1 m/S 703 mmHg 98%
    06:00 +20°C° 0 mm 1 m/S 704 mmHg 98%
    07:00 +21°C° 0 mm 1 m/S 704 mmHg 97%
    08:00 +22°C° 0 mm 1 m/S 705 mmHg 92%
    09:00 +23°C° 0 mm 1 m/S 705 mmHg 87%
    10:00 +24°C° 0 mm 1 m/S 705 mmHg 81%
    11:00 +26°C° 0.1 mm 1 m/S 704 mmHg 75%
    12:00 +27°C° 0.1 mm 1 m/S 704 mmHg 69%
    13:00 +29°C° 0.1 mm 1 m/S 703 mmHg 63%
    14:00 +28°C° 1.1 mm 1 m/S 703 mmHg 72%
    15:00 +27°C° 1.1 mm 1 m/S 702 mmHg 81%
    16:00 +26°C° 1.1 mm 1 m/S 702 mmHg 90%
    17:00 +25°C° 1.6 mm 1 m/S 702 mmHg 93%
    18:00 +24°C° 1.6 mm 2 m/S 702 mmHg 95%
    19:00 +21°C° 1.6 mm 2 m/S 703 mmHg 97%
    20:00 +22°C° 0.5 mm 1 m/S 703 mmHg 97%
    21:00 +22°C° 0.5 mm 1 m/S 704 mmHg 98%
    22:00 +22°C° 0.5 mm 1 m/S 704 mmHg 98%
    23:00 +22°C° 0.2 mm 1 m/S 704 mmHg 98%
    Mehr zeigen